Home   Weather   Atlanta   Past weeks
Flag for USA

Past Weather in Atlanta, Georgia, USA — April 2018

Now
82 °F

Sunny.


Feels Like: 85 °F
Forecast: 87 / 68 °F
Wind: No wind

Location: Fulton County Airport-Brown Field

Current Time: Jun 26, 2019 at 1:00:46 pm

Latest Report: Jun 26, 2019 at 11:53 am


Visibility: 10 mi

Pressure: 30.18 "Hg

Humidity: 63%

Dew Point: 68 °F

Location of AtlantaLocation

April 2018 Weather in Atlanta — Graph

°F

High & Low Weather Summary for April 2018

 TemperatureHumidityPressure
High84 °F (Apr 18, 3:53 pm)100% (Apr 1, 4:53 am)30.35 "Hg (Apr 1, 4:53 am)
Low35 °F (Apr 17, 4:53 am)18% (Apr 20, 5:53 pm)29.71 "Hg (Apr 15, 2:53 pm)
Average59 °F68%30.01 "Hg
* Reported Apr 1 12:53 am — Apr 30 11:53 pm, Atlanta. Weather by CustomWeather, © 2019

Note: Actual official high and low records may vary slightly from our data, if they occured in-between our weather recording intervals... More about our weather records

Advertising

Atlanta Weather History for April 1, 2018

Scroll right to see more
 ConditionsComfort  
Time TempWeatherWind HumidityBarometerVisibility
12:53 am
Sun, Apr 1
46 °FClear.No wind86%30.18 "Hg10 mi
1:53 am45 °FClear.No wind90%30.17 "Hg10 mi
2:53 am43 °FClear.No wind97%30.16 "Hg10 mi
3:53 am42 °FClear.No wind96%30.15 "Hg10 mi
4:53 am41 °FClear.No wind100%30.15 "Hg10 mi
5:53 am41 °FClear.No wind96%30.16 "Hg10 mi
6:53 am41 °FClear.No wind96%30.16 "Hg10 mi
7:53 am41 °FSunny.No wind100%30.18 "Hg10 mi
8:53 am47 °FSunny.No wind86%30.18 "Hg10 mi
9:53 am55 °FSunny.No wind67%30.18 "Hg10 mi
10:53 am63 °FSunny.8 mph48%30.18 "Hg10 mi
11:53 am68 °FSunny.9 mph40%30.16 "Hg10 mi
12:53 pm70 °FSunny.N/A38%30.14 "Hg10 mi
1:53 pm72 °FSunny.6 mph37%30.11 "Hg10 mi
2:53 pm75 °FSunny.8 mph33%30.07 "Hg10 mi
3:53 pm76 °FSunny.3 mph30%30.04 "Hg10 mi
4:53 pm78 °FSunny.13 mph25%30.01 "Hg10 mi
5:53 pm78 °FSunny.6 mph27%30.00 "Hg10 mi
6:53 pm77 °FSunny.13 mph24%29.99 "Hg10 mi
7:53 pm74 °FSunny.6 mph27%29.99 "Hg10 mi
8:53 pm71 °FClear.5 mph31%30.00 "Hg10 mi
9:53 pm66 °FClear.5 mph43%30.00 "Hg10 mi
10:53 pm63 °FClear.No wind50%30.01 "Hg10 mi
11:53 pm63 °FClear.5 mph48%30.00 "Hg10 mi
Weather by CustomWeather, © 2019

See weather overview